Miscellaneous Local Product
Issued by NWS North Platte, NE

Home | Current Version | Previous Version | Text Only | Print | Product List | Glossary On
Versions: 1 2 3 4 5 6 7 8 9 10 11 12 13 14 15 16 17 18 19 20 21 22 23 24 25 26 27 28 29 30 31 32 33 34 35 36 37 38 39 40 41 42 43 44 45 46 47 48 49 50
000
AXUS43 KLBF 202110
MISLBF


WESTERN AND NORTH CENTRAL NEBRASKA HOURLY WEATHER ROUNDUP
NATIONAL WEATHER SERVICE NORTH PLATTE NE
400 PM CDT THU JUL 20 2017

NOTE: "FAIR" INDICATES FEW OR NO CLOUDS BELOW 12,000 FEET WITH NO
SIGNIFICANT WEATHER AND/OR OBSTRUCTIONS TO VISIBILITY.

NOTE: STATIONS NOT REPORTING VARIABLES SUCH AS SKY/WEATHER OR
PRESSURE ARE PROVIDED BY RAWS AND APRS NETWORKS AND ARE NOT UNDER
NATIONAL WEATHER SERVICE QUALITY CONTROL.

...OBSERVATIONS IN AND NEAR THE EASTERN PANHANDLE OF NEBRASKA...

CITY           SKY/WX    TMP DP  RH WIND       PRES   REMARKS
PINE RIDGE     SUNNY     92  62  36 S15       30.03F HX  92
GORDON         FAIR      87  64  45 S9        30.07F
CHADRON        SUNNY     93  56  28 SE12      30.01F HX  91
ALLIANCE       MOSUNNY   91  60  35 E8        30.07F HX  90
SIDNEY         MOSUNNY   92  56  29 E13G20    30.11F HX  90
CRESCENT LAKE    N/A     91  61  36 SE6G13      N/A  HX  91
$$

...OBSERVATIONS IN NORTHERN NEBRASKA AND FAR SOUTHERN SOUTH DAKOTA...

CITY           SKY/WX    TMP DP  RH WIND       PRES   REMARKS
WINNER         FAIR      98  64  32 SE16G23   29.97F HX 100
VALENTINE      MOSUNNY   99  55  23 SE13      29.99F HX  97
THEDFORD       SUNNY     90  63  40 SE14G20   30.05S HX  91
AINSWORTH      SUNNY     90  64  42 SE10      30.03F HX  91
O`NEILL        MOSUNNY   84  74  70 E6        30.02F HX  91
ORD            CLOUDY    89  67  47 E12       29.98F HX  92
BROKEN BOW     MOSUNNY   91  70  49 E16G25    30.01S HX  96
VALENTINE NWR    N/A     88  65  46 SE8G16      N/A  HX  90
HALSEY           N/A     90  61  37 NE8G16      N/A  HX  90
BUTTE            N/A     88  71  57 SE7         N/A  HX  94
CHAMBERS         N/A     91  74  56 CALM        N/A  HX 100
EWING            N/A     85  77  77 NE3G12      N/A  HX  95
$$

...OBSERVATIONS IN SOUTHWEST NEBRASKA AND FAR NORTHEAST COLORADO...

CITY           SKY/WX    TMP DP  RH WIND       PRES   REMARKS
HOLYOKE        FAIR      95  61  31 E8        30.05F HX  95
IMPERIAL       SUNNY     98  52  21 E6        29.98F HX  95
OGALLALA       SUNNY     92  60  34 SE12      30.04F HX  91
NORTH PLATTE   SUNNY     92  68  45 SE15      30.00F HX  96
MCCOOK         PTSUNNY  103  55  20 SW12      29.94F HX 101
LEXINGTON      MOSUNNY   88  72  59 E9        29.99F HX  94
STAPLETON        N/A     89  68  49 E3G16       N/A  HX  92
GOTHENBURG       N/A     88  66  47 E9          N/A  HX  90
CALLAWAY         N/A     91  73  54 E10         N/A  HX  98
$$

...OBSERVATIONS IN CENTRAL LINCOLN COUNTY AREA...

CITY           SKY/WX    TMP DP  RH WIND       PRES   REMARKS
N.P. AIRPORT   SUNNY     92  68  45 SE15      30.00F HX  96
N.P. DOWNTOWN    N/A     91  68  47 E5G12       N/A  HX  95
N.P. SOUTHEAST   N/A     91  67  45 E6G13       N/A  HX  94
N.P. HILLCREST   N/A     91  67  44 E14G22      N/A  HX  94
$$

...SOME OBSERVATIONS FROM AROUND THE REGION...

CITY           SKY/WX    TMP DP  RH WIND       PRES   REMARKS
DENVER         MOSUNNY   95  50  21 SE10      30.14F HX  92
LIMON          SUNNY     91  54  28 CALM      30.15F
ASPEN          CLOUDY    81  44  27 VRB5      30.34F
LARAMIE        CLOUDY    82  45  27 VRB5      30.27F
CASPER         SUNNY     92  46  20 S9        30.07F
CHEYENNE       SUNNY     92  47  21 VRB7      30.19F
SCOTTSBLUFF    SUNNY     91  59  33 E13       30.07F HX  90
GRAND ISLAND   PTSUNNY   88  75  65 E9        29.99S HX  97
OMAHA          MOSUNNY   97  71  42 SE6       29.94F HX 104
SIOUX FALLS    LGT RAIN  83  72  69 E13       30.00F
RAPID CITY     SUNNY     97  57  26 S18G26    29.97F HX  96
BISMARCK       SUNNY     96  58  27 S16G25    29.92F HX  95
KANSAS CITY    MOSUNNY   96  76  52 S13       29.99F HX 109
HILL CITY      SUNNY    103  56  21 S16G24    29.94F HX 102
WICHITA        MOSUNNY  102  64  28 S13       29.96F HX 105
DODGE CITY     SUNNY    101  53  20 S13G25    30.00F HX  99
OKLAHOMA CITY  MOSUNNY  101  61  26 S8G17     30.01F HX 102
DALLAS         MOSUNNY   99  65  32 VRB5      30.00F HX 102
AMARILLO       MOSUNNY   95  55  26 S16G26    30.12F HX  93
$$




USA.gov is the U.S. government's official web portal to all federal, state and local government web resources and services.